AAL174 KRDU-EGLL

Flight info

Callsign AAL174
Flight time N/A
Altitude 39000
Route BEXGO5 BOUSY DCT GEARS DCT BBOBO Q22 RBV DCT LGA DCT GREKI DCT EEN DCT BML DCT PQI DCT TAFFY N643B RIKAL/M084F400 DCT 53N050W 54N040W 55N030W 55N020W DCT RESNO DCT NETKI/N0475F410 DCT GIMRO DCT BOFUM Q37 MALUD Q38 NUGRA
Aircraft B772/H-SDE1E3FGHIJ3J5M1P2RWXYZ/LB1D1

Departure

Time 2026-04-29 03:51
Airport Raleigh-Durham International Airport (KRDU)

Arrival

Time N/A
Airport London Heathrow Airport (EGLL)
Time Latitude Longitude Altitude Speed Heading
2026-04-29 02:55 35.87992 -78.79134 431 ft 0 kts 186°
2026-04-29 03:03 35.87998 -78.79134 431 ft 0 kts 184°
2026-04-29 03:38 35.88000 -78.79134 431 ft 2 kts 184°
2026-04-29 03:38 35.88021 -78.79132 417 ft 3 kts 184°
2026-04-29 03:39 35.88046 -78.79125 418 ft 4 kts 213°
2026-04-29 03:39 35.88060 -78.79104 417 ft 4 kts 274°
2026-04-29 03:39 35.88049 -78.79079 417 ft 4 kts 315°
2026-04-29 03:39 35.88033 -78.79060 417 ft 1 kts 315°
2026-04-29 03:43 35.88035 -78.79062 430 ft 2 kts 315°
2026-04-29 03:43 35.88054 -78.79084 419 ft 5 kts 321°
2026-04-29 03:43 35.88090 -78.79089 417 ft 6 kts 19°
2026-04-29 03:44 35.88127 -78.79053 417 ft 8 kts 43°
2026-04-29 03:44 35.88171 -78.79000 420 ft 10 kts 46°
2026-04-29 03:44 35.88225 -78.78931 420 ft 12 kts 46°
2026-04-29 03:44 35.88291 -78.78850 422 ft 14 kts 44°
2026-04-29 03:45 35.88365 -78.78761 418 ft 15 kts 45°
2026-04-29 03:45 35.88437 -78.78671 418 ft 15 kts 45°
2026-04-29 03:45 35.88512 -78.78580 417 ft 15 kts 44°
2026-04-29 03:45 35.88585 -78.78491 420 ft 15 kts 45°
2026-04-29 03:46 35.88658 -78.78401 420 ft 15 kts 44°
2026-04-29 03:46 35.88731 -78.78309 421 ft 15 kts 45°
2026-04-29 03:46 35.88805 -78.78219 421 ft 15 kts 45°
2026-04-29 03:46 35.88879 -78.78129 418 ft 15 kts 45°
2026-04-29 03:47 35.88947 -78.78041 421 ft 14 kts 50°
2026-04-29 03:47 35.88991 -78.77937 423 ft 14 kts 66°
2026-04-29 03:47 35.89046 -78.77843 421 ft 14 kts 47°
2026-04-29 03:47 35.89113 -78.77759 420 ft 14 kts 45°
2026-04-29 03:48 35.89175 -78.77683 417 ft 9 kts 45°
2026-04-29 03:48 35.89219 -78.77639 419 ft 8 kts 12°
2026-04-29 03:48 35.89262 -78.77679 419 ft 8 kts 314°
2026-04-29 03:48 35.89288 -78.77712 420 ft 8 kts 315°
2026-04-29 03:49 35.89329 -78.77760 420 ft 8 kts 317°
2026-04-29 03:49 35.89364 -78.77809 420 ft 7 kts 291°
2026-04-29 03:49 35.89350 -78.77844 417 ft 0 kts 222°
2026-04-29 03:50 35.89323 -78.77875 424 ft 19 kts 224°
2026-04-29 03:50 35.89075 -78.78180 419 ft 87 kts 225°
2026-04-29 03:51 35.88482 -78.78913 418 ft 153 kts 225°
2026-04-29 03:51 35.87702 -78.79884 1046 ft 155 kts 225°
2026-04-29 03:51 35.86941 -78.80813 1839 ft 153 kts 224°
2026-04-29 03:51 35.86166 -78.81753 2202 ft 163 kts 225°
2026-04-29 03:52 35.85365 -78.82820 2445 ft 176 kts 238°
2026-04-29 03:52 35.85068 -78.84352 2657 ft 199 kts 275°
2026-04-29 03:52 35.85612 -78.85993 2891 ft 219 kts 307°
2026-04-29 03:52 35.86637 -78.87411 3369 ft 227 kts 311°
2026-04-29 03:53 35.87733 -78.88908 3715 ft 244 kts 311°
2026-04-29 03:53 35.88896 -78.90530 4121 ft 259 kts 311°
2026-04-29 03:53 35.90087 -78.92232 4751 ft 264 kts 311°
2026-04-29 03:53 35.91270 -78.93969 5474 ft 265 kts 311°
2026-04-29 03:54 35.92550 -78.95574 6099 ft 263 kts 329°
2026-04-29 03:54 35.94304 -78.96159 6686 ft 268 kts
2026-04-29 03:54 35.96055 -78.95387 7321 ft 274 kts 34°
2026-04-29 03:54 35.97441 -78.93737 7839 ft 280 kts 45°
2026-04-29 03:55 35.98775 -78.91930 8328 ft 288 kts 45°
2026-04-29 03:55 36.00122 -78.90084 9000 ft 290 kts 45°
2026-04-29 03:55 36.01448 -78.88250 9580 ft 293 kts 45°
2026-04-29 03:55 36.02817 -78.86348 10156 ft 299 kts 45°
2026-04-29 03:56 36.04242 -78.84368 10336 ft 319 kts 45°
2026-04-29 03:56 36.05768 -78.82248 10488 ft 341 kts 45°
2026-04-29 03:56 36.07380 -78.80007 10848 ft 355 kts 45°
2026-04-29 03:56 36.09048 -78.77684 11414 ft 365 kts 45°
2026-04-29 03:57 36.10740 -78.75323 11943 ft 370 kts 45°
2026-04-29 03:57 36.12465 -78.72918 12089 ft 378 kts 45°
2026-04-29 03:57 36.14232 -78.70454 12830 ft 385 kts 46°
2026-04-29 03:57 36.16027 -78.67949 13608 ft 393 kts 45°
2026-04-29 03:58 36.17854 -78.65399 14359 ft 399 kts 45°
2026-04-29 03:58 36.19700 -78.62820 15229 ft 401 kts 45°
2026-04-29 03:58 36.21552 -78.60230 16181 ft 402 kts 45°
2026-04-29 03:58 36.23412 -78.57627 17076 ft 404 kts 44°
2026-04-29 03:59 36.25282 -78.55011 17983 ft 407 kts 44°
2026-04-29 03:59 36.27166 -78.52373 18812 ft 410 kts 44°
2026-04-29 03:59 36.29066 -78.49711 19526 ft 415 kts 44°
2026-04-29 03:59 36.30996 -78.47006 20189 ft 422 kts 44°
2026-04-29 04:00 36.32929 -78.44293 20840 ft 428 kts 44°
2026-04-29 04:00 36.34908 -78.41512 21565 ft 432 kts 44°
2026-04-29 04:00 36.36908 -78.38699 22282 ft 437 kts 44°
2026-04-29 04:00 36.38925 -78.35859 22971 ft 442 kts 44°
2026-04-29 04:01 36.40971 -78.32976 23678 ft 447 kts 44°
2026-04-29 04:01 36.43036 -78.30063 24254 ft 452 kts 44°
2026-04-29 04:01 36.45127 -78.27111 24816 ft 456 kts 44°
2026-04-29 04:01 36.47229 -78.24144 25331 ft 461 kts 43°
2026-04-29 04:02 36.49387 -78.21176 25830 ft 463 kts 40°
2026-04-29 04:02 36.51729 -78.18422 26385 ft 461 kts 34°
2026-04-29 04:02 36.54240 -78.15976 27017 ft 456 kts 28°
2026-04-29 04:02 36.56845 -78.13718 27628 ft 458 kts 27°
2026-04-29 04:03 36.59482 -78.11463 28087 ft 462 kts 27°
2026-04-29 04:03 36.62145 -78.09189 28531 ft 466 kts 27°
2026-04-29 04:03 36.64826 -78.06890 29025 ft 470 kts 26°
2026-04-29 04:03 36.67521 -78.04562 29478 ft 473 kts 26°
2026-04-29 04:04 36.70228 -78.02213 29908 ft 476 kts 26°
2026-04-29 04:04 36.72958 -77.99835 30307 ft 479 kts 26°
2026-04-29 04:04 36.75701 -77.97440 30596 ft 484 kts 26°
2026-04-29 04:04 36.78472 -77.95016 30826 ft 488 kts 26°
2026-04-29 04:05 36.81218 -77.92610 31090 ft 491 kts 26°
2026-04-29 04:05 36.84016 -77.90157 31368 ft 494 kts 26°
2026-04-29 04:05 36.86849 -77.87670 31607 ft 498 kts 25°
2026-04-29 04:05 36.89691 -77.85174 31829 ft 501 kts 25°
2026-04-29 04:06 36.92595 -77.82622 32063 ft 505 kts 25°
2026-04-29 04:06 36.95431 -77.80128 32289 ft 507 kts 25°
2026-04-29 04:06 36.98324 -77.77580 32497 ft 510 kts 25°
2026-04-29 04:06 37.01234 -77.75015 32735 ft 512 kts 25°
2026-04-29 04:07 37.04145 -77.72445 33023 ft 513 kts 25°
2026-04-29 04:07 37.07060 -77.69868 33317 ft 514 kts 25°
2026-04-29 04:07 37.09983 -77.67282 33674 ft 514 kts 25°
2026-04-29 04:07 37.12890 -77.64709 33973 ft 515 kts 24°
2026-04-29 04:08 37.15828 -77.62107 34243 ft 516 kts 24°
2026-04-29 04:08 37.18756 -77.59512 34540 ft 515 kts 24°
2026-04-29 04:08 37.21643 -77.56939 35333 ft 501 kts 24°
2026-04-29 04:08 37.24449 -77.54426 35972 ft 493 kts 23°
2026-04-29 04:09 37.27246 -77.51937 36240 ft 494 kts 23°
2026-04-29 04:09 37.30060 -77.49443 36478 ft 495 kts 23°
2026-04-29 04:09 37.32872 -77.46948 36821 ft 493 kts 22°
2026-04-29 04:09 37.35661 -77.44465 37228 ft 490 kts 22°
2026-04-29 04:10 37.38435 -77.41990 37594 ft 487 kts 22°
2026-04-29 04:10 37.41193 -77.39527 37912 ft 486 kts 22°
2026-04-29 04:10 37.43947 -77.37066 38215 ft 485 kts 22°
2026-04-29 04:10 37.46691 -77.34613 38517 ft 483 kts 22°
2026-04-29 04:11 37.49427 -77.32164 38818 ft 482 kts 22°
2026-04-29 04:11 37.52150 -77.29724 39044 ft 482 kts 22°
2026-04-29 04:11 37.57642 -77.24805 39134 ft 485 kts 22°
2026-04-29 04:12 37.63114 -77.19878 39117 ft 479 kts 22°
2026-04-29 04:12 37.68511 -77.15003 39112 ft 474 kts 22°
2026-04-29 04:13 37.73877 -77.10165 39126 ft 473 kts 22°
2026-04-29 04:13 37.79248 -77.05319 39138 ft 475 kts 22°
2026-04-29 04:14 37.84605 -77.00465 39142 ft 477 kts 23°
2026-04-29 04:14 37.90001 -76.95543 39141 ft 479 kts 23°
2026-04-29 04:15 37.95427 -76.90598 39152 ft 481 kts 22°
2026-04-29 04:15 38.00873 -76.85640 39113 ft 483 kts 24°
2026-04-29 04:16 38.06328 -76.80663 39117 ft 483 kts 24°
2026-04-29 04:16 38.11751 -76.75707 39116 ft 483 kts 24°
2026-04-29 04:17 38.17208 -76.70711 39119 ft 484 kts 24°
2026-04-29 04:17 38.22666 -76.65705 39118 ft 484 kts 24°
2026-04-29 04:18 38.28133 -76.60681 39126 ft 484 kts 24°